Location: Arclight Observatory
(36.5667°N, 87.3333°W)
Time: 19:24:02
(UTC-06:00)

Hubble Space Telescope - Visible Passes

Search period start: 27 November 2014 00:00
Search period end: 07 December 2014 00:00
Orbit: 546 x 549 km, 28.5° (Epoch: 26 November)

Date Brightness Start Highest point End Pass type
(mag) Time Alt. Az. Time Alt. Az. Time Alt. Az.
27 Nov 2.3 04:38:39 26° S 04:38:44 26° S 04:42:15 10° SE visible
28 Nov 2.5 04:31:36 25° S 04:31:36 25° S 04:34:34 10° SE visible
28 Nov 3.2 06:09:35 10° SW 06:11:56 15° SSW 06:14:16 10° SSE visible
29 Nov 2.8 04:24:32 21° SSE 04:24:32 21° SSE 04:26:50 10° SE visible
29 Nov 3.2 06:02:39 10° SW 06:04:15 12° SSW 06:05:51 10° S visible
30 Nov 3.1 04:17:28 17° SSE 04:17:28 17° SSE 04:19:02 10° SE visible
01 Dec 3.5 04:10:24 13° SSE 04:10:24 13° SSE 04:11:08 10° SSE visible
